Decimomannu, Italy

8:06 AM CET on January 18, 2017 (GMT +0100)
Decimomannu

Weather History for LIED - January, 2014

Change the Weather History Date:

Saturday, January 11, 2014

  Actual Average Record
Temperature  
Mean Temperature 51 °F -  
Max Temperature 63 °F 57 °F 66 °F (2016)
Min Temperature 39 °F 40 °F 32 °F (2008)
Degree Days  
Heating Degree Days 14    
Growing Degree Days 1 (Base 50)    
Moisture  
Dew Point 47 °F    
Average Humidity 85    
Maximum Humidity 94    
Minimum Humidity 70    
Precipitation  
Precipitation 0.00 in 0.07 in - ()
Sea Level Pressure  
Sea Level Pressure 30.10 in    
Wind  
Wind Speed 2 mph ()    
Max Wind Speed 5 mph    
Max Gust Speed -    
Visibility 4.8 miles    
Events      
Averages and records for this station are not official NWS values.
T = Trace of Precipitation, MM = Missing Value Source: Averaged Metar Reports

Daily Weather History Graph

Daily Weather History Graph

Search for Another Location

Airport or City:

Trip Planner

Search our weather history database for the weather conditions in past years. The results will help you decide how hot, cold, wet, or windy it might be!

Date:

Astronomy

Jan. 11, 2014 Rise Set
Actual Time 7:43 AM CET 5:20 PM CET
Civil Twilight 7:13 AM CET 5:50 PM CET
Nautical Twilight 6:40 AM CET 6:23 PM CET
Astronomical Twilight 6:08 AM CET 6:55 PM CET
Moon 1:53 PM CET (1/11) 3:33 AM CET (1/11)
Length of Visible Light 10h 36m
Length of Day
9h 37m
Waxing Gibbous, 81% of the Moon is Illuminated
Jan 11
Waxing Gibbous
Jan 16
Full
Jan 24
Last Quarter
Jan 30
New
Feb 6
First Quarter

Hourly Weather History & Observations

Time (CET) Temp. Dew Point Humidity Pressure Visibility Wind Dir Wind Speed Gust Speed Precip Events Conditions
1:00 AM 45 °F 41 °F 81% 30.10 in 4 mi NE 3.5 mph - -   Mist
1:55 AM 41.0 °F 37.4 °F 87% 30.09 in 3.7 mi NE 1.2 mph - N/A   Partly Cloudy
2:55 AM 41.0 °F 37.4 °F 87% 30.09 in 3.7 mi NE 1.2 mph - N/A   Partly Cloudy
3:55 AM 42.8 °F 39.2 °F 87% 30.06 in 3.7 mi NNW 2.3 mph - N/A   Partly Cloudy
4:00 AM 43 °F 39 °F 81% 30.09 in 4 mi NNW 2.3 mph - -   Mist
4:55 AM 42.8 °F 39.2 °F 87% 30.06 in 6.2 mi WNW 2.3 mph - N/A   Partly Cloudy
5:55 AM 41.0 °F 37.4 °F 87% 30.06 in 6.2 mi Calm Calm - N/A   Partly Cloudy
6:55 AM 39.2 °F 35.6 °F 87% 30.06 in 3.7 mi NW 1.2 mph - N/A   Partly Cloudy
7:00 AM 40 °F 36 °F 82% 30.09 in 4 mi NW 1.2 mph - -   Mist
7:55 AM 41.0 °F 37.4 °F 87% 30.09 in 3.7 mi NNE 2.3 mph - N/A   Partly Cloudy
8:55 AM 44.6 °F 41.0 °F 87% 30.12 in 5.0 mi NNE 2.3 mph - N/A   Partly Cloudy
9:55 AM 50.0 °F 46.4 °F 87% 30.12 in 6.2 mi West 2.3 mph - N/A   Scattered Clouds
10:00 AM 50 °F 46 °F 83% 30.14 in 6 mi West 2.3 mph - -   Partly Cloudy
10:55 AM 55.4 °F 51.8 °F 88% 30.12 in 6.2 mi Calm Calm - N/A   Scattered Clouds
11:55 AM 59.0 °F 53.6 °F 82% 30.12 in 6.2 mi East 2.3 mph - N/A   Scattered Clouds
12:55 PM 60.8 °F 55.4 °F 82% 30.09 in 6.2 mi SE 2.3 mph - N/A   Scattered Clouds
1:00 PM 62 °F 55 °F 70% 30.11 in 6 mi SE 2.3 mph - -   Partly Cloudy
1:55 PM 62.6 °F 55.4 °F 77% 30.09 in 6.2 mi ESE 2.3 mph - N/A   Scattered Clouds
2:55 PM 62.6 °F 57.2 °F 82% 30.06 in 6.2 mi SE 4.6 mph - N/A   Scattered Clouds
3:55 PM 60.8 °F 57.2 °F 88% 30.09 in 6.2 mi SSE 4.6 mph - N/A   Scattered Clouds
4:00 PM 61 °F 58 °F 86% 30.09 in 6 mi SSE 4.6 mph - -   Partly Cloudy
4:55 PM 59.0 °F 57.2 °F 94% 30.09 in 6.2 mi South 3.5 mph - N/A   Scattered Clouds
5:55 PM 57.2 °F 53.6 °F 88% 30.09 in 4.3 mi South 3.5 mph - N/A   Scattered Clouds
6:55 PM 53.6 °F 50.0 °F 88% 30.09 in 4.3 mi SE 4.6 mph - N/A   Scattered Clouds
7:00 PM 54 °F 51 °F 85% 30.12 in 4 mi SE 4.6 mph - -   Mist
7:55 PM 51.8 °F 48.2 °F 88% 30.12 in 4.3 mi East 3.5 mph - N/A   Scattered Clouds
8:55 PM 50.0 °F 48.2 °F 94% 30.12 in 3.1 mi NNE 1.2 mph - N/A   Scattered Clouds
9:55 PM 50.0 °F 46.4 °F 87% 30.12 in 4.3 mi NE 4.6 mph - N/A   Scattered Clouds
10:00 PM 51 °F 47 °F 81% 30.13 in 4 mi NE 4.6 mph - -   Mist
10:55 PM 50.0 °F 46.4 °F 87% 30.12 in 3.1 mi WNW 3.5 mph - N/A   Scattered Clouds
11:55 PM 50.0 °F 46.4 °F 87% 30.12 in 2.5 mi NNW 3.5 mph - N/A   Scattered Clouds